DLH6K LSZH-EDDF

Flight info

Callsign DLH6K
Flight time N/A
Altitude 22000
Route DEGES Z1 SUDEN T164 KOVAN T163 SPESA
Aircraft A319/M-SDE3FGHIRWY/LB1

Departure

Time N/A
Airport Zürich Airport (LSZH)

Arrival

Time 2026-05-05 18:48
Airport Frankfurt Main Airport (EDDF)
Time Latitude Longitude Altitude Speed Heading
2026-05-05 18:22 48.03949 9.31331 21853 ft 466 kts 38°
2026-05-05 18:22 48.06508 9.34304 21850 ft 466 kts 38°
2026-05-05 18:22 48.09064 9.37285 21854 ft 466 kts 38°
2026-05-05 18:22 48.11615 9.40263 21849 ft 465 kts 38°
2026-05-05 18:23 48.14285 9.42995 21822 ft 466 kts 29°
2026-05-05 18:23 48.17251 9.44945 21825 ft 466 kts 18°
2026-05-05 18:23 48.20423 9.45917 21821 ft 466 kts
2026-05-05 18:23 48.23657 9.45885 21824 ft 465 kts 357°
2026-05-05 18:24 48.26898 9.45698 21837 ft 466 kts 356°
2026-05-05 18:24 48.30135 9.45496 21832 ft 466 kts 356°
2026-05-05 18:24 48.33377 9.45284 21834 ft 466 kts 356°
2026-05-05 18:24 48.36614 9.45062 21830 ft 466 kts 356°
2026-05-05 18:25 48.39854 9.44837 21826 ft 466 kts 356°
2026-05-05 18:25 48.40905 9.44765 21825 ft 466 kts 356°
2026-05-05 18:25 48.46334 9.44393 21822 ft 467 kts 356°
2026-05-05 18:25 48.49577 9.44175 21823 ft 467 kts 356°
2026-05-05 18:26 48.52780 9.43966 21825 ft 467 kts 356°
2026-05-05 18:26 48.56023 9.43759 21828 ft 467 kts 356°
2026-05-05 18:26 48.59263 9.43550 21828 ft 466 kts 356°
2026-05-05 18:26 48.62508 9.43334 21827 ft 466 kts 356°
2026-05-05 18:27 48.65751 9.43115 21824 ft 466 kts 356°
2026-05-05 18:27 48.68989 9.42896 21825 ft 466 kts 356°
2026-05-05 18:27 48.72228 9.42675 21826 ft 466 kts 356°
2026-05-05 18:27 48.75472 9.42454 21826 ft 466 kts 356°
2026-05-05 18:28 48.80858 9.42088 21830 ft 466 kts 356°
2026-05-05 18:28 48.84101 9.41870 21828 ft 466 kts 356°
2026-05-05 18:28 48.87338 9.41654 21827 ft 466 kts 356°
2026-05-05 18:29 48.90574 9.41438 21823 ft 466 kts 356°
2026-05-05 18:29 48.93814 9.41219 21829 ft 466 kts 356°
2026-05-05 18:29 48.97051 9.40999 21829 ft 466 kts 356°
2026-05-05 18:29 49.00288 9.40778 21829 ft 466 kts 356°
2026-05-05 18:30 49.03528 9.40555 21827 ft 466 kts 356°
2026-05-05 18:30 49.06770 9.40331 21831 ft 466 kts 356°
2026-05-05 18:30 49.10013 9.40112 21832 ft 466 kts 356°
2026-05-05 18:30 49.13258 9.39896 21831 ft 467 kts 356°
2026-05-05 18:31 49.16486 9.39678 21663 ft 458 kts 356°
2026-05-05 18:31 49.19615 9.39463 21124 ft 445 kts 356°
2026-05-05 18:31 49.22681 9.39248 20468 ft 437 kts 356°
2026-05-05 18:31 49.25696 9.39038 19854 ft 431 kts 356°
2026-05-05 18:32 49.28669 9.38834 19243 ft 425 kts 356°
2026-05-05 18:32 49.31611 9.38633 18647 ft 421 kts 356°
2026-05-05 18:32 49.34528 9.38435 18047 ft 418 kts 356°
2026-05-05 18:32 49.37428 9.38237 17417 ft 416 kts 356°
2026-05-05 18:33 49.40279 9.38043 16991 ft 407 kts 356°
2026-05-05 18:33 49.43093 9.37848 16395 ft 403 kts 355°
2026-05-05 18:33 49.45877 9.37652 15810 ft 399 kts 355°
2026-05-05 18:33 49.48633 9.37459 15209 ft 395 kts 355°
2026-05-05 18:34 49.51373 9.37267 14599 ft 392 kts 355°
2026-05-05 18:34 49.54089 9.37077 13999 ft 389 kts 355°
2026-05-05 18:34 49.56779 9.36882 13384 ft 385 kts 354°
2026-05-05 18:34 49.59387 9.36199 12724 ft 378 kts 344°
2026-05-05 18:35 49.61930 9.35290 12068 ft 373 kts 344°
2026-05-05 18:35 49.64444 9.34382 11434 ft 368 kts 344°
2026-05-05 18:35 49.66915 9.33462 10824 ft 363 kts 343°
2026-05-05 18:35 49.69350 9.32507 10218 ft 359 kts 343°
2026-05-05 18:36 49.71738 9.31563 9901 ft 347 kts 343°
2026-05-05 18:36 49.74020 9.30673 9818 ft 329 kts 343°
2026-05-05 18:36 49.76205 9.29827 9833 ft 320 kts 343°
2026-05-05 18:36 49.78355 9.28995 9835 ft 318 kts 343°
2026-05-05 18:37 49.80474 9.28176 9835 ft 318 kts 343°
2026-05-05 18:37 49.82609 9.27353 9839 ft 311 kts 343°
2026-05-05 18:37 49.84657 9.26545 9678 ft 299 kts 343°
2026-05-05 18:37 49.86655 9.25744 9307 ft 295 kts 343°
2026-05-05 18:38 49.88630 9.24956 8905 ft 292 kts 343°
2026-05-05 18:38 49.90591 9.24174 8522 ft 290 kts 343°
2026-05-05 18:38 49.92537 9.23397 8121 ft 288 kts 343°
2026-05-05 18:38 49.94462 9.22610 7838 ft 284 kts 340°
2026-05-05 18:39 49.96209 9.21238 7834 ft 282 kts 325°
2026-05-05 18:39 49.97857 9.19586 7832 ft 280 kts 324°
2026-05-05 18:39 49.99474 9.17949 7830 ft 276 kts 324°
2026-05-05 18:39 50.01085 9.16313 7516 ft 276 kts 323°
2026-05-05 18:40 50.02560 9.14447 7124 ft 271 kts 315°
2026-05-05 18:40 50.03941 9.12461 6730 ft 269 kts 314°
2026-05-05 18:40 50.05300 9.10486 6364 ft 266 kts 314°
2026-05-05 18:40 50.06640 9.08530 5980 ft 263 kts 314°
2026-05-05 18:41 50.07969 9.06585 5593 ft 262 kts 314°
2026-05-05 18:41 50.09290 9.04648 5210 ft 260 kts 314°
2026-05-05 18:41 50.10590 9.02737 5010 ft 251 kts 314°
2026-05-05 18:41 50.11807 9.00899 5013 ft 238 kts 308°
2026-05-05 18:42 50.12584 8.98676 5020 ft 233 kts 288°
2026-05-05 18:42 50.13105 8.96295 5020 ft 232 kts 285°
2026-05-05 18:42 50.13572 8.93895 5016 ft 230 kts 279°
2026-05-05 18:42 50.13560 8.91439 5017 ft 225 kts 255°
2026-05-05 18:43 50.13067 8.89216 5014 ft 209 kts 248°
2026-05-05 18:43 50.12579 8.87136 5011 ft 206 kts 248°
2026-05-05 18:43 50.12086 8.85037 4844 ft 206 kts 249°
2026-05-05 18:43 50.11596 8.82953 4587 ft 204 kts 249°
2026-05-05 18:44 50.11108 8.80883 4302 ft 203 kts 249°
2026-05-05 18:44 50.10623 8.78827 4014 ft 202 kts 249°
2026-05-05 18:44 50.10139 8.76774 3724 ft 202 kts 249°
2026-05-05 18:44 50.09661 8.74751 3448 ft 196 kts 249°
2026-05-05 18:45 50.09197 8.72790 3161 ft 189 kts 250°
2026-05-05 18:45 50.08747 8.70891 2891 ft 185 kts 250°
2026-05-05 18:45 50.08309 8.69043 2629 ft 180 kts 250°
2026-05-05 18:45 50.07880 8.67232 2373 ft 177 kts 250°
2026-05-05 18:46 50.07458 8.65457 2126 ft 174 kts 250°
2026-05-05 18:46 50.07050 8.63736 1889 ft 161 kts 250°
2026-05-05 18:46 50.06689 8.62218 1666 ft 140 kts 250°
2026-05-05 18:46 50.06368 8.60869 1472 ft 128 kts 249°
2026-05-05 18:47 50.06065 8.59597 1289 ft 125 kts 249°
2026-05-05 18:47 50.05768 8.58335 1094 ft 124 kts 250°
2026-05-05 18:47 50.05472 8.57075 920 ft 124 kts 249°
2026-05-05 18:47 50.05177 8.55813 743 ft 124 kts 248°
2026-05-05 18:48 50.04870 8.54560 586 ft 124 kts 249°
2026-05-05 18:48 50.04569 8.53316 406 ft 124 kts 249°
2026-05-05 18:48 50.04287 8.52136 339 ft 99 kts 250°
2026-05-05 18:48 50.04143 8.51606 331 ft 35 kts 232°
2026-05-05 18:49 50.04011 8.51412 332 ft 17 kts 219°
2026-05-05 18:49 50.03921 8.51401 336 ft 13 kts 129°
2026-05-05 18:49 50.03931 8.51544 334 ft 15 kts 71°
2026-05-05 18:49 50.03974 8.51728 335 ft 21 kts 68°
2026-05-05 18:50 50.04034 8.51975 338 ft 27 kts 71°
2026-05-05 18:50 50.04102 8.52258 349 ft 29 kts 70°
2026-05-05 18:50 50.04176 8.52569 352 ft 33 kts 70°
2026-05-05 18:50 50.04260 8.52925 354 ft 37 kts 69°
2026-05-05 18:51 50.04351 8.53299 367 ft 35 kts 69°
2026-05-05 18:51 50.04405 8.53639 376 ft 32 kts 84°
2026-05-05 18:51 50.04427 8.53984 376 ft 32 kts 84°
2026-05-05 18:51 50.04448 8.54331 374 ft 29 kts 84°
2026-05-05 18:52 50.04434 8.54579 367 ft 24 kts 112°
2026-05-05 18:52 50.04323 8.54768 361 ft 20 kts 150°
2026-05-05 18:52 50.04174 8.54852 356 ft 24 kts 160°
2026-05-05 18:52 50.04043 8.54928 352 ft 15 kts 160°
2026-05-05 18:53 50.03936 8.54992 351 ft 19 kts 158°
2026-05-05 18:53 50.03851 8.55108 351 ft 16 kts 92°
2026-05-05 18:53 50.03881 8.55248 355 ft 14 kts 69°
2026-05-05 18:53 50.03908 8.55363 349 ft 4 kts 69°
2026-05-05 18:54 50.03910 8.55370 355 ft 1 kts 68°
2026-05-05 18:54 50.03912 8.55381 353 ft 2 kts 68°
2026-05-05 18:54 50.03917 8.55397 353 ft 1 kts 69°
2026-05-05 18:54 50.03923 8.55420 350 ft 6 kts 69°
2026-05-05 18:55 50.03949 8.55530 351 ft 16 kts 69°
2026-05-05 18:55 50.03997 8.55733 358 ft 24 kts 70°
2026-05-05 18:55 50.04058 8.55949 355 ft 16 kts 29°
2026-05-05 18:55 50.04143 8.55942 358 ft 14 kts 341°
2026-05-05 18:56 50.04236 8.55935 354 ft 14 kts 30°
2026-05-05 18:56 50.04333 8.55933 360 ft 17 kts 340°
2026-05-05 18:56 50.04451 8.55919 357 ft 18 kts 16°
2026-05-05 18:56 50.04562 8.55984 360 ft 10 kts 29°
2026-05-05 18:57 50.04585 8.56095 356 ft 14 kts 69°
2026-05-05 18:57 50.04626 8.56263 356 ft 19 kts 70°
2026-05-05 18:57 50.04670 8.56445 357 ft 16 kts 69°
2026-05-05 18:57 50.04716 8.56571 356 ft 10 kts 52°
2026-05-05 18:58 50.04771 8.56606 356 ft 10 kts 343°
2026-05-05 18:58 50.04813 8.56582 356 ft 1 kts 340°